Weather History for Hattiesburg, MS

Change the Weather History Date:

Friday, January 20, 2006

  Actual Average Record
Temperature  
Mean Temperature 54 °F 48 °F  
Max Temperature 63 °F 60 °F 80 °F (1982)
Min Temperature 46 °F 37 °F 13 °F (1977)
Degree Days  
Heating Degree Days 10 17  
Month to date heating degree days 333  
Since 1 July heating degree days 1118  
Cooling Degree Days 0 0  
Month to date cooling degree days 0  
Year to date cooling degree days 0  
Growing Degree Days 4 (Base 50)    
Moisture  
Dew Point 54 °F    
Average Humidity 88    
Maximum Humidity 100    
Minimum Humidity 67    
Precipitation  
Precipitation 0.27 in 0.18 in 3.90 in (1979)
Month to date precipitation 3.57  
Year to date precipitation 3.57  
Sea Level Pressure  
Sea Level Pressure 30.16 in    
Wind  
Wind Speed 3 mph (ESE)    
Max Wind Speed 10 mph    
Max Gust Speed -    
Visibility 6 miles    
Events Rain    
T = Trace of Precipitation, MM = Missing Value Source: NWS Daily Summary

Daily Weather History Graph

Daily Weather History Graph

Search for Another Location

Airport:

Trip Planner

Search our weather history database for the weather conditions in past years. The results will help you decide how hot, cold, wet, or windy it might be!

Date:

Astronomy

Jan. 20, 2006 Rise Set
Actual Time 6:55 AM CST 5:21 PM CST
Civil Twilight 6:29 AM CST 5:47 PM CST
Nautical Twilight 5:59 AM CST 6:16 PM CST
Astronomical Twilight 5:30 AM CST 6:45 PM CST
Moon 11:05 PM CST (1/20) 10:19 AM CST (1/20)
Length of Visible Light 11h 18m
Length of Day
10h 26m
Waning Gibbous, 68% of the Moon is Illuminated
Jan 20
Waning Gibbous
Jan 22
Last Quarter
Jan 29
New
Feb 5
First Quarter
Feb 12
Full

Hourly Weather History & Observations

Time (CST) Temp. Dew Point Humidity Pressure Visibility Wind Dir Wind Speed Gust Speed Precip Events Conditions
12:53 AM 46.9 °F 44.1 °F 90% 30.20 in 10.0 mi Calm Calm - N/A   Clear
1:53 AM 48.0 °F 45.0 °F 89% 30.20 in 10.0 mi Calm Calm - N/A   Overcast
2:53 AM 50.0 °F 46.9 °F 89% 30.20 in 10.0 mi Calm Calm - N/A   Overcast
3:53 AM 53.1 °F 48.9 °F 86% 30.21 in 10.0 mi East 4.6 mph - N/A   Overcast
4:53 AM 53.1 °F 48.9 °F 86% 30.21 in 10.0 mi Calm Calm - N/A   Overcast
5:53 AM 52.0 °F 48.9 °F 89% 30.22 in 10.0 mi SSE 3.5 mph - N/A   Overcast
6:53 AM 54.0 °F 48.0 °F 80% 30.19 in 10.0 mi East 8.1 mph - N/A   Overcast
7:53 AM 55.0 °F 48.9 °F 80% 30.20 in 10.0 mi East 4.6 mph - N/A   Overcast
8:53 AM 55.9 °F 48.9 °F 77% 30.23 in 10.0 mi SE 8.1 mph - N/A   Overcast
9:53 AM 57.9 °F 50.0 °F 75% 30.24 in 10.0 mi ESE 6.9 mph - N/A   Mostly Cloudy
10:53 AM 62.1 °F 51.1 °F 67% 30.22 in 10.0 mi ESE 10.4 mph - N/A   Overcast
11:03 AM 62.6 °F 51.8 °F 68% 30.22 in 10.0 mi SE 9.2 mph - N/A   Overcast
11:53 AM 61.0 °F 52.0 °F 72% 30.19 in 10.0 mi East 8.1 mph - 0.00 in   Overcast
12:53 PM 62.1 °F 53.1 °F 72% 30.16 in 10.0 mi ESE 10.4 mph - 0.00 in   Overcast
1:53 PM 62.1 °F 53.1 °F 72% 30.13 in 10.0 mi ESE 8.1 mph - N/A   Overcast
2:53 PM 63.0 °F 54.0 °F 72% 30.12 in 9.0 mi ESE 9.2 mph - 0.00 in Rain Light Rain
3:53 PM 61.0 °F 55.9 °F 83% 30.13 in 10.0 mi East 4.6 mph - 0.00 in   Overcast
4:22 PM 60.8 °F 55.4 °F 82% 30.13 in 10.0 mi East 4.6 mph - N/A   Overcast
4:53 PM 61.0 °F 55.9 °F 83% 30.13 in 10.0 mi East 4.6 mph - 0.00 in   Overcast
5:53 PM 59.0 °F 57.0 °F 93% 30.12 in 4.0 mi Calm Calm - 0.02 in Rain Rain
6:31 PM 59.0 °F 57.2 °F 94% 30.12 in 2.0 mi East 4.6 mph - 0.08 in Rain Rain
6:42 PM 59.0 °F 57.2 °F 94% 30.13 in 4.0 mi Variable 3.5 mph - 0.09 in Rain Rain
6:53 PM 59.0 °F 57.0 °F 93% 30.13 in 3.0 mi Calm Calm - 0.09 in Rain Light Rain
7:10 PM 59.0 °F 57.2 °F 94% 30.13 in 1.8 mi Calm Calm - 0.04 in Rain Rain
7:17 PM 59.0 °F 57.2 °F 94% 30.13 in 2.5 mi Calm Calm - 0.05 in Rain Rain
7:29 PM 57.2 °F 57.2 °F 100% 30.13 in 1.5 mi NNW 3.5 mph - 0.13 in Rain Heavy Rain
7:40 PM 57.2 °F 57.2 °F 100% 30.13 in 2.5 mi NNW 3.5 mph - 0.14 in Rain Rain
7:53 PM 59.0 °F 57.0 °F 93% 30.14 in 2.5 mi Calm Calm - 0.15 in Rain Rain
8:03 PM 59.0 °F 57.2 °F 94% 30.14 in 3.0 mi Calm Calm - 0.00 in Rain Light Rain
8:16 PM 59.0 °F 57.2 °F 94% 30.14 in 2.5 mi Calm Calm - 0.00 in Rain Light Rain
8:24 PM 59.0 °F 57.2 °F 94% 30.14 in 3.0 mi Calm Calm - 0.00 in Rain Light Rain
8:31 PM 59.0 °F 57.2 °F 94% 30.14 in 2.5 mi Calm Calm - 0.00 in Rain Light Rain
8:41 PM 59.0 °F 57.2 °F 94% 30.14 in 3.0 mi Calm Calm - 0.00 in Rain Light Rain
8:53 PM 59.0 °F 57.0 °F 93% 30.14 in 3.0 mi Calm Calm - 0.00 in   Overcast
9:05 PM 57.2 °F 57.2 °F 100% 30.14 in 2.0 mi West 3.5 mph - 0.00 in Rain Light Rain
9:33 PM 59.0 °F 57.2 °F 94% 30.15 in 1.8 mi Calm Calm - 0.00 in Rain Light Rain
9:53 PM 59.0 °F 57.0 °F 93% 30.14 in 2.0 mi Calm Calm - 0.01 in Rain Light Rain
10:14 PM 59.0 °F 57.2 °F 94% 30.14 in 1.8 mi Calm Calm - 0.00 in Rain Light Rain
10:53 PM 59.0 °F 57.0 °F 93% 30.14 in 1.5 mi NW 3.5 mph - 0.00 in Rain Light Rain
11:14 PM 59.0 °F 57.2 °F 94% 30.14 in 2.0 mi Calm Calm - 0.00 in Rain Light Rain
11:26 PM 59.0 °F 57.2 °F 94% 30.14 in 3.0 mi Calm Calm - 0.00 in Rain Light Rain
11:34 PM 59.0 °F 57.2 °F 94% 30.13 in 2.5 mi Calm Calm - 0.00 in Rain Rain
11:53 PM 59.0 °F 57.9 °F 96% 30.13 in 2.5 mi Calm Calm - 0.00 in   Overcast